Weather History for Ashtabula, OH

Change the Weather History Date:

Wednesday, July 17, 2013

  Actual Average (KYNG) Record (KYNG)
Temperature  
Mean Temperature 80 °F 71 °F  
Max Temperature 89 °F 82 °F 98 °F (1931)
Min Temperature 72 °F 60 °F 47 °F (1974)
Degree Days  
Heating Degree Days 0 0  
Month to date heating degree days 8  
Since 1 June heating degree days 77  
Since 1 July heating degree days 8  
Cooling Degree Days 16 6  
Month to date cooling degree days 102  
Year to date cooling degree days 251  
Since 1 June cooling degree days 212  
Growing Degree Days 30 (Base 50)    
Moisture  
Dew Point 71 °F    
Average Humidity 74    
Maximum Humidity 90    
Minimum Humidity 55    
Precipitation  
Precipitation 0.00 in 0.15 in 1.25 in (1956)
Month to date precipitation 2.39  
Year to date precipitation 21.06  
Snow  
Snow 0.00 in 0.00 in - ()
Month to date snowfall 0.0  
Since 1 June snowfall 0.0  
Since 1 July snowfall 0.0  
Snow Depth -    
Sea Level Pressure  
Sea Level Pressure 30.23 in    
Wind  
Wind Speed 2 mph (WNW)    
Max Wind Speed 10 mph    
Max Gust Speed -    
Visibility 8 miles    
Events      
T = Trace of Precipitation, MM = Missing Value Source: NWS Daily Summary

Daily Weather History Graph

Daily Weather History Graph

Search for Another Location

Airport:

Trip Planner

Search our weather history database for the weather conditions in past years. The results will help you decide how hot, cold, wet, or windy it might be!

Date:

Astronomy

Jul. 17, 2013 Rise Set
Actual Time 6:03 AM EDT 8:54 PM EDT
Civil Twilight 5:30 AM EDT 9:27 PM EDT
Nautical Twilight 4:48 AM EDT 10:08 PM EDT
Astronomical Twilight 4:00 AM EDT 10:56 PM EDT
Moon 3:40 PM EDT (7/17) 1:10 AM EDT (7/17)
Length of Visible Light 15h 57m
Length of Day
14h 51m
Waxing Gibbous, 67% of the Moon is Illuminated
Jul 17
Waxing Gibbous
Jul 22
Full
Jul 29
Last Quarter
Aug 6
New
Aug 14
First Quarter

Hourly Weather History & Observations

Time (EDT) Temp. Heat Index Dew Point Humidity Pressure Visibility Wind Dir Wind Speed Gust Speed Precip Events Conditions
12:53 AM 73.0 °F - 69.1 °F 87% 30.27 in 4.0 mi Calm Calm - N/A   Clear
1:53 AM 73.0 °F - 69.1 °F 87% 30.27 in 4.0 mi Calm Calm - N/A   Clear
2:53 AM 73.0 °F - 70.0 °F 90% 30.26 in 5.0 mi Calm Calm - N/A   Clear
3:53 AM 73.0 °F - 70.0 °F 90% 30.26 in 5.0 mi Calm Calm - N/A   Clear
4:53 AM 72.0 °F - 68.0 °F 87% 30.27 in 4.0 mi Calm Calm - N/A   Clear
5:53 AM 73.0 °F - 69.1 °F 87% 30.27 in 5.0 mi Calm Calm - N/A   Partly Cloudy
6:53 AM 73.0 °F - 70.0 °F 90% 30.27 in 3.0 mi Calm Calm - N/A   Clear
7:53 AM 77.0 °F - 72.0 °F 84% 30.29 in 7.0 mi West 4.6 mph - N/A   Mostly Cloudy
8:53 AM 78.1 °F - 73.0 °F 84% 30.29 in 7.0 mi Calm Calm - N/A   Scattered Clouds
9:53 AM 82.9 °F 89.4 °F 73.9 °F 74% 30.28 in 10.0 mi Calm Calm - N/A   Scattered Clouds
10:53 AM 84.9 °F 91.4 °F 73.0 °F 67% 30.27 in 10.0 mi WNW 5.8 mph - N/A   Clear
11:53 AM 84.9 °F 90.1 °F 71.1 °F 63% 30.27 in 10.0 mi WNW 6.9 mph - N/A   Clear
12:53 PM 86.0 °F 91.5 °F 71.1 °F 61% 30.27 in 10.0 mi NW 6.9 mph - N/A   Clear
1:53 PM 88.0 °F 93.8 °F 71.1 °F 57% 30.25 in 10.0 mi Variable 5.8 mph - N/A   Clear
2:53 PM 88.0 °F 93.8 °F 71.1 °F 57% 30.23 in 10.0 mi West 10.4 mph - N/A   Clear
3:53 PM 89.1 °F 96.0 °F 72.0 °F 57% 30.21 in 10.0 mi West 9.2 mph - N/A   Clear
4:53 PM 89.1 °F 95.0 °F 71.1 °F 55% 30.20 in 10.0 mi West 9.2 mph - N/A   Clear
5:53 PM 88.0 °F 93.8 °F 71.1 °F 57% 30.17 in 10.0 mi WNW 6.9 mph - N/A   Clear
6:53 PM 87.1 °F 92.0 °F 70.0 °F 57% 30.16 in 10.0 mi WNW 5.8 mph - N/A   Clear
7:53 PM 84.0 °F 87.8 °F 69.1 °F 61% 30.17 in 10.0 mi WNW 6.9 mph - N/A   Clear
8:53 PM 81.0 °F 84.4 °F 70.0 °F 69% 30.17 in 10.0 mi WNW 4.6 mph - N/A   Clear
9:53 PM 75.9 °F - 70.0 °F 82% 30.17 in 10.0 mi Calm Calm - N/A   Clear
10:53 PM 73.9 °F - 70.0 °F 87% 30.17 in 9.0 mi Calm Calm - N/A   Clear
11:53 PM 75.9 °F - 70.0 °F 82% 30.17 in 8.0 mi Calm Calm - N/A   Partly Cloudy